Wind_Speed
32 32 32 33 34 35 36 36 36 35 35 36 36 35 35 33 33 33 34 34 34 34 34 35 35 36 35 36 37 37 39 39 40 41 41 41 42 42 42 42 42 43 43 43
32 32 32 33 34 35 35 35 35 35 35 35 36 35 35 34 34 34 34 33 34 33 33 33 33 34 35 36 36 38 39 40 40 41 41 42 42 42 42 42 43 43 44 44
31 32 32 33 33 34 34 34 33 33 34 35 36 36 34 34 34 34 33 33 32 33 33 33 33 33 34 35 36 37 38 39 40 41 41 42 42 42 43 43 43 43 44 45
31 30 31 32 32 32 32 31 32 33 34 34 34 36 34 33 34 34 33 33 32 31 32 32 33 33 34 35 36 36 37 38 39 40 40 41 41 42 43 43 43 44 44 45
30 29 30 30 29 29 29 29 30 31 32 34 34 36 33 32 33 33 33 32 31 30 31 31 32 33 34 34 34 34 35 36 37 38 39 41 41 41 42 43 43 44 44 45
28 28 29 27 27 27 27 28 29 30 31 33 32 34 34 31 31 31 32 31 31 30 30 31 31 32 33 33 33 33 34 35 36 38 39 40 40 41 42 42 43 43 44 44
27 27 28 27 27 28 28 28 28 30 32 32 31 33 32 30 30 30 31 31 30 30 31 30 30 31 32 32 32 33 34 36 36 37 38 39 40 40 41 42 43 44 44 44
27 26 26 26 28 28 28 28 28 30 31 32 31 32 31 29 30 30 30 30 30 30 30 30 30 30 31 31 32 33 34 35 37 37 38 38 39 40 40 40 42 42 43 44
27 26 25 24 25 25 26 27 27 29 30 31 31 31 30 28 29 29 29 29 30 30 30 30 30 30 31 31 32 33 34 35 36 37 38 38 39 39 40 40 41 41 41 42
26 25 23 24 24 24 24 25 26 28 28 30 30 29 29 28 29 29 29 29 30 31 31 31 31 32 32 32 32 32 33 34 35 36 37 38 38 39 39 40 40 41 41 42
24 24 23 24 24 24 24 25 25 27 28 28 28 27 27 27 28 29 29 29 30 31 32 32 32 32 33 33 33 34 34 35 36 36 37 37 37 38 39 40 41 41 41 41
24 25 25 24 23 24 25 25 25 25 26 28 29 27 25 26 27 28 28 29 29 30 31 31 32 32 33 33 34 34 34 35 36 36 37 37 38 39 40 41 41 42 42 42
25 26 26 25 25 24 24 25 25 26 27 28 29 28 26 26 27 27 28 29 29 30 30 30 31 32 33 34 34 34 35 35 36 36 36 37 38 39 40 41 42 42 43 43
26 26 26 27 26 26 26 26 26 27 28 29 29 28 26 26 27 27 27 28 28 28 28 29 30 31 32 33 34 34 34 35 35 36 36 37 38 39 40 40 41 42 43 44
26 27 27 27 27 26 26 26 26 27 28 29 28 27 25 25 26 26 26 27 28 27 28 28 29 30 31 32 33 33 34 34 35 35 36 36 37 38 38 39 39 40 41 42
27 27 27 27 26 27 26 26 27 27 27 28 28 27 25 25 26 26 26 26 27 27 28 28 29 29 30 31 32 32 33 33 33 34 34 35 36 36 37 38 38 39 39 41
27 28 27 27 26 27 27 25 25 27 28 28 28 26 25 26 27 27 26 27 27 27 28 29 29 30 30 30 30 31 31 31 31 32 32 33 34 35 36 36 37 37 38 39
28 27 27 27 26 27 25 24 24 25 25 26 26 24 24 25 27 27 28 28 27 27 27 28 29 29 30 29 29 30 30 30 31 31 31 32 32 33 33 33 34 35 35 36
27 26 26 26 26 26 24 23 23 24 25 24 24 24 24 26 26 27 27 27 27 27 27 27 27 28 28 28 28 28 28 29 29 28 29 29 29 30 30 30 31 32 33 33
25 25 25 26 26 26 23 23 23 24 24 23 23 23 24 25 26 26 26 27 27 27 26 26 26 26 26 26 26 26 26 26 26 27 27 27 28 28 28 29 29 30 30 30
24 23 23 24 25 24 23 23 23 23 22 22 22 22 23 24 25 25 26 27 27 27 26 25 25 24 24 24 24 24 25 25 25 25 26 26 26 26 26 27 27 28 28 28
23 23 23 23 24 23 21 21 22 22 22 21 21 22 24 24 24 25 25 25 25 25 25 24 24 23 23 23 23 23 23 24 25 25 25 25 25 25 25 25 25 25 26 26
22 22 23 23 22 22 20 21 21 21 22 22 23 23 24 24 24 24 24 23 23 24 24 23 23 23 22 22 23 23 23 23 24 24 24 25 25 24 24 24 24 24 24 24
22 22 22 22 21 20 20 20 21 22 22 23 23 23 23 23 23 23 22 23 23 22 22 22 22 22 22 22 22 23 23 23 24 23 23 23 23 23 23 23 23 23 22 23
22 22 22 22 21 21 21 21 21 22 23 23 23 23 23 23 22 22 22 22 22 21 21 22 22 22 22 22 23 23 23 23 23 22 22 22 22 22 22 22 22 21 21 21
22 22 22 21 21 21 22 22 22 22 22 23 23 23 23 22 22 23 22 22 21 21 21 22 22 22 22 23 22 22 23 23 22 22 22 22 22 22 22 21 21 20 20 20
Wind_Direction
276 275 275 275 274 274 274 273 272 271 269 268 266 264 264 264 265 264 264 264 263 263 262 261 260 259 259 259 258 256 256 255 256 256 256 255 254 254 253 254 254 254 254 254
278 277 276 275 275 274 273 271 271 269 268 267 265 263 262 263 265 264 264 264 264 264 263 261 261 260 259 259 259 257 256 256 256 256 256 256 255 255 256 256 255 254 254 254
281 280 277 275 274 272 271 271 270 270 268 267 266 263 262 263 264 264 264 264 264 264 264 263 262 261 260 259 259 259 258 257 257 257 256 256 256 256 256 256 256 256 255 255
282 281 278 276 273 271 270 271 271 270 269 267 267 267 263 263 262 263 264 264 265 265 265 264 261 260 259 259 259 258 258 257 257 257 256 257 257 257 257 257 257 257 258 257
283 281 278 275 273 271 270 271 272 271 270 270 269 271 268 265 263 264 265 266 265 265 265 264 262 260 259 259 259 258 258 258 258 257 257 258 258 258 258 259 259 259 259 259
285 282 279 275 273 270 270 271 273 273 272 272 271 272 270 267 266 266 267 266 266 266 265 264 264 263 261 259 258 259 259 259 260 259 259 259 259 260 259 259 260 260 260 260
286 283 279 274 272 271 272 274 275 275 273 273 273 273 272 270 270 269 268 267 266 266 266 265 264 264 262 259 259 260 261 261 261 261 261 261 261 261 261 261 261 261 261 261
291 287 281 278 275 275 275 274 275 276 276 275 274 273 273 273 271 270 269 268 267 267 266 265 264 263 262 261 261 262 262 262 262 262 262 262 263 262 261 262 262 262 262 262
293 291 286 280 278 276 277 275 275 275 276 276 274 274 274 273 271 270 269 269 268 267 266 265 264 263 262 263 263 264 264 263 263 263 264 263 263 262 261 261 261 262 262 263
292 289 285 280 279 277 277 276 275 274 276 277 275 274 274 272 271 271 271 269 269 268 267 266 265 264 264 265 265 265 265 265 265 265 265 264 264 263 261 261 262 263 263 263
290 288 286 283 282 279 277 276 274 273 272 275 277 277 276 274 273 273 272 271 271 270 268 267 267 266 267 267 267 267 267 267 267 267 267 266 266 264 263 263 263 264 265 266
289 288 288 286 283 281 279 277 273 271 271 272 275 277 277 276 276 275 274 273 273 272 270 269 268 268 268 268 268 269 269 268 268 268 268 267 267 266 264 264 264 265 265 266
289 288 288 287 285 283 281 279 275 271 269 271 273 277 277 278 278 276 275 274 274 272 272 272 271 270 270 269 269 269 268 268 267 268 268 268 268 267 266 266 265 265 265 266
288 288 288 287 287 284 281 279 275 272 269 270 273 277 276 279 278 277 275 275 276 275 274 274 274 273 272 271 271 270 269 268 268 268 269 270 269 269 268 267 267 267 267 268
287 288 289 287 285 284 282 281 277 275 273 273 275 277 277 277 277 277 277 277 278 277 277 277 277 276 274 273 272 272 271 270 269 270 271 271 271 271 271 271 271 270 270 269
288 288 288 287 285 282 281 279 279 277 274 274 275 275 275 275 276 277 279 278 278 278 278 278 278 278 277 276 274 273 272 271 271 271 273 272 272 272 271 272 272 272 272 270
290 288 287 287 286 281 279 280 277 276 274 275 277 277 274 273 275 276 278 278 278 279 279 278 279 279 279 278 277 275 273 273 273 274 275 276 275 274 273 273 272 273 273 272
290 287 287 287 287 283 285 283 278 276 276 278 277 274 274 275 275 275 277 278 279 280 280 279 279 278 279 279 277 276 276 275 276 276 277 278 278 277 275 274 274 274 275 274
288 289 289 288 286 286 283 282 280 277 277 277 275 274 274 277 276 276 277 277 278 280 281 281 280 280 280 279 278 278 277 278 278 277 278 279 279 278 276 275 275 276 277 276
289 290 289 289 286 286 287 284 281 280 279 277 275 275 276 277 277 276 276 275 278 281 281 281 281 281 280 279 279 280 280 279 277 278 279 280 279 279 278 277 278 279 279 278
290 290 289 289 288 288 288 285 283 282 283 280 277 276 276 277 277 276 275 275 278 281 282 282 281 280 280 280 280 281 282 280 279 279 281 281 280 280 281 281 281 281 281 280
288 289 290 288 289 290 289 285 283 283 281 279 279 278 278 278 276 276 277 277 278 280 281 281 281 281 281 281 282 282 282 282 281 281 281 281 280 280 281 282 283 283 283 282
285 287 289 289 289 289 287 286 285 283 282 280 280 280 279 279 277 277 277 278 279 280 280 280 281 281 282 283 283 282 284 284 283 281 281 281 280 279 280 282 283 284 283 283
284 283 285 287 286 286 285 284 285 283 281 281 281 280 279 276 276 277 277 277 279 279 279 279 280 282 282 284 284 283 284 284 283 283 282 282 281 281 280 280 282 283 283 285
283 281 283 287 288 286 283 285 286 286 283 282 281 279 277 275 275 275 277 279 279 278 279 280 280 282 284 285 286 286 284 284 283 282 282 281 281 283 282 281 281 281 282 285
283 282 284 287 288 287 285 286 287 288 286 283 281 279 277 275 275 276 278 279 279 278 279 280 281 283 284 285 286 286 285 284 283 282 280 281 281 283 284 283 282 282 284 284
Height
5686 5686 5686 5685 5684 5683 5682 5682 5682 5683 5682 5683 5684 5685 5687 5688 5688 5690 5690 5691 5692 5693 5694 5694 5695 5696 5697 5699 5700 5702 5704 5706 5708 5710 5712 5713 5715 5717 5719 5721 5723 5725 5726 5728
5678 5678 5678 5675 5674 5674 5673 5673 5674 5674 5673 5673 5674 5675 5678 5679 5680 5681 5682 5683 5684 5684 5685 5686 5687 5687 5689 5690 5691 5693 5695 5697 5698 5700 5702 5704 5706 5708 5709 5711 5713 5715 5716 5718
5668 5670 5667 5666 5665 5665 5664 5665 5665 5665 5664 5664 5664 5666 5669 5671 5671 5672 5673 5674 5675 5676 5677 5677 5678 5679 5680 5681 5683 5684 5686 5687 5689 5691 5692 5694 5696 5698 5699 5701 5703 5704 5706 5708
5660 5660 5658 5657 5657 5656 5656 5657 5656 5656 5655 5656 5657 5656 5661 5662 5662 5664 5665 5666 5666 5668 5668 5669 5669 5670 5671 5672 5673 5675 5677 5678 5679 5681 5683 5684 5686 5688 5689 5691 5693 5694 5696 5697
5651 5651 5649 5649 5649 5648 5648 5648 5648 5648 5647 5647 5649 5647 5651 5652 5654 5656 5657 5658 5659 5660 5660 5661 5661 5662 5663 5664 5665 5666 5667 5669 5670 5671 5673 5674 5675 5677 5679 5681 5682 5684 5685 5687
5643 5642 5641 5641 5641 5641 5641 5641 5641 5640 5639 5639 5642 5640 5641 5644 5646 5647 5648 5650 5651 5651 5652 5653 5653 5654 5655 5656 5657 5658 5659 5660 5661 5662 5663 5664 5665 5667 5669 5670 5672 5673 5675 5676
5636 5635 5634 5634 5634 5634 5634 5634 5634 5632 5631 5632 5634 5632 5634 5637 5638 5639 5640 5641 5642 5643 5644 5644 5645 5646 5647 5647 5648 5649 5650 5651 5652 5653 5654 5654 5656 5657 5658 5660 5661 5662 5664 5665
5628 5628 5628 5627 5627 5627 5627 5627 5628 5626 5625 5625 5626 5625 5628 5630 5630 5630 5631 5633 5634 5635 5635 5636 5637 5638 5639 5639 5640 5641 5641 5642 5643 5643 5644 5645 5646 5647 5648 5649 5650 5652 5653 5654
5621 5621 5621 5620 5620 5620 5620 5620 5621 5620 5618 5618 5618 5619 5621 5622 5622 5623 5624 5625 5626 5627 5628 5628 5629 5630 5630 5631 5632 5632 5632 5633 5633 5633 5634 5635 5635 5636 5638 5639 5640 5641 5642 5643
5616 5615 5616 5615 5614 5614 5614 5614 5614 5613 5611 5610 5612 5613 5615 5615 5616 5616 5617 5617 5618 5619 5620 5620 5621 5621 5622 5622 5623 5623 5623 5623 5623 5623 5624 5625 5625 5626 5627 5628 5629 5630 5631 5632
5610 5609 5609 5609 5608 5608 5608 5608 5607 5606 5606 5605 5605 5609 5608 5608 5609 5609 5609 5610 5610 5611 5611 5612 5612 5613 5613 5613 5614 5614 5613 5613 5614 5614 5614 5615 5615 5615 5616 5617 5618 5619 5620 5620
5605 5603 5603 5603 5603 5602 5601 5601 5601 5601 5600 5599 5598 5603 5602 5602 5602 5602 5602 5602 5602 5602 5603 5603 5603 5604 5604 5604 5604 5604 5604 5604 5604 5604 5604 5605 5605 5605 5606 5606 5607 5607 5608 5609
5599 5598 5596 5596 5598 5597 5595 5595 5594 5594 5593 5593 5593 5596 5595 5595 5595 5594 5595 5594 5594 5594 5594 5594 5594 5594 5595 5595 5595 5594 5594 5594 5594 5594 5594 5594 5594 5594 5594 5595 5595 5596 5596 5597
5593 5592 5592 5591 5589 5588 5588 5588 5587 5587 5586 5586 5587 5588 5589 5588 5588 5587 5587 5586 5586 5586 5586 5586 5585 5585 5585 5585 5585 5584 5584 5584 5584 5584 5584 5583 5583 5583 5583 5583 5583 5584 5584 5584
5587 5586 5585 5584 5582 5581 5580 5580 5580 5580 5580 5579 5581 5580 5581 5581 5580 5580 5579 5579 5578 5578 5578 5577 5577 5576 5576 5575 5575 5574 5574 5574 5573 5573 5573 5573 5572 5572 5572 5572 5572 5572 5572 5572
5581 5579 5578 5577 5576 5575 5573 5574 5573 5573 5573 5572 5573 5574 5575 5574 5573 5572 5572 5571 5571 5570 5570 5569 5568 5568 5567 5566 5565 5564 5564 5564 5563 5563 5562 5562 5562 5562 5561 5561 5560 5560 5560 5559
5575 5573 5571 5569 5569 5567 5566 5568 5567 5567 5566 5566 5565 5567 5567 5566 5565 5565 5564 5564 5563 5562 5562 5561 5560 5559 5558 5557 5556 5555 5554 5554 5553 5553 5553 5552 5551 5551 5551 5550 5550 5549 5549 5548
5568 5566 5564 5562 5562 5559 5563 5561 5560 5559 5560 5559 5559 5559 5559 5559 5558 5557 5556 5556 5555 5555 5554 5553 5552 5550 5549 5548 5547 5546 5545 5545 5544 5544 5543 5542 5542 5541 5540 5540 5539 5539 5538 5537
5561 5559 5557 5555 5553 5552 5555 5554 5553 5552 5553 5553 5552 5552 5551 5551 5551 5550 5549 5548 5547 5547 5546 5544 5543 5542 5540 5539 5538 5537 5536 5536 5535 5535 5534 5533 5532 5531 5531 5530 5530 5529 5528 5527
5555 5553 5552 5549 5547 5546 5549 5548 5546 5546 5546 5546 5545 5544 5544 5544 5544 5544 5542 5541 5540 5539 5538 5537 5535 5534 5533 5532 5530 5529 5528 5528 5527 5527 5526 5525 5524 5523 5522 5522 5521 5520 5519 5518
5549 5547 5546 5543 5541 5540 5542 5541 5540 5541 5540 5538 5537 5537 5537 5537 5536 5536 5534 5533 5533 5532 5530 5529 5528 5527 5526 5524 5523 5522 5521 5520 5519 5519 5518 5517 5516 5515 5515 5514 5513 5512 5511 5510
5542 5541 5539 5538 5536 5538 5536 5534 5534 5534 5532 5531 5531 5531 5530 5530 5529 5528 5527 5526 5525 5524 5523 5522 5521 5520 5519 5517 5516 5515 5514 5513 5512 5511 5510 5510 5509 5508 5507 5506 5505 5504 5503 5502
5536 5536 5534 5533 5533 5531 5529 5528 5527 5527 5526 5525 5525 5524 5524 5523 5522 5521 5520 5519 5518 5518 5517 5516 5514 5513 5512 5511 5510 5509 5508 5506 5505 5504 5503 5503 5502 5501 5501 5500 5499 5498 5497 5495
5531 5530 5528 5527 5526 5525 5524 5523 5522 5521 5520 5519 5518 5517 5517 5516 5515 5515 5514 5513 5512 5511 5510 5509 5508 5507 5506 5505 5504 5502 5501 5500 5498 5498 5497 5496 5495 5495 5494 5493 5492 5491 5490 5489
5525 5524 5522 5521 5521 5520 5519 5517 5516 5515 5514 5512 5512 5511 5510 5509 5509 5508 5507 5506 5506 5505 5504 5503 5502 5501 5500 5498 5497 5495 5494 5493 5492 5491 5490 5490 5489 5488 5487 5487 5486 5485 5484 5483
5519 5518 5517 5516 5515 5514 5513 5512 5511 5509 5508 5507 5506 5504 5503 5503 5502 5502 5501 5500 5499 5499 5498 5497 5495 5494 5493 5492 5490 5489 5488 5487 5486 5485 5484 5483 5483 5482 5481 5480 5480 5479 5478 5477